User: anonymous   Login
Location: Unspecified
(0.0000°N, 0.0000°E)
Time: 10:19:34
(UTC+00:00)
Language:

APRIZESAT 5 - Orbit

View from above orbital plane
View from above orbital plane
View from above satellite
View from above satellite

Ground track
Ground track

The orbit data is extracted from the following two-line orbital elements,

1 37792U 11044E   18232.86461411  .00000068  00000-0  18204-4 0  9998
2 37792  98.3935  35.3864 0059399 123.9010 236.7867 14.75256457377212
Epoch (UTC): 20 August 2018 20:45:02
Eccentricity: 0.0059399
inclination: 98.3935°
perigee height: 602 km
apogee height: 686 km
right ascension of ascending node: 35.3864°
argument of perigee: 123.9010°
revolutions per day: 14.75256457
mean anomaly at epoch: 236.7867°
orbit number at epoch: 37721

The dashed part of the orbit path shows where the satellite is in the earth's shadow,  

DLR